This is the latest recevied weather packets stored in our database for station/object WP4PW. If no packets are shown the sender has not sent any weather packets the latest 1 day(s).
| Time | Temp. | Humidity | Pressure | Rain* | Wind** | Luminosity | Snow |
|---|---|---|---|---|---|---|---|
| 1777999500 | 30° C | 78% | 1021.7 hPa | 0 mm | 2.68 m/s, 157° | 314 W/m² | - |
| 1777999198 | 30.56° C | 77% | 1021.8 hPa | 0 mm | 2.68 m/s, 116° | 230 W/m² | - |
| 1777998896 | 30.56° C | 76% | 1021.9 hPa | 0 mm | 1.34 m/s, 198° | 391 W/m² | - |
| 1777998595 | 30.56° C | 79% | 1021.9 hPa | 0 mm | 3.58 m/s, 120° | 400 W/m² | - |
| 1777998290 | 30° C | 80% | 1022.1 hPa | 0 mm | 2.24 m/s, 132° | 393 W/m² | - |
| 1777997987 | 31.11° C | 78% | 1021.8 hPa | 0 mm | 1.34 m/s, 100° | 762 W/m² | - |
| 1777997684 | 30.56° C | 76% | 1022 hPa | 0 mm | 4.02 m/s, 99° | 852 W/m² | - |
| 1777997382 | 30° C | 79% | 1022.1 hPa | 0 mm | 1.79 m/s, 65° | 916 W/m² | - |
| 1777997080 | 30.56° C | 80% | 1022 hPa | 0 mm | 2.68 m/s, 77° | 146 W/m² | - |
| 1777996776 | 30° C | 80% | 1021.9 hPa | 0 mm | 1.34 m/s, 79° | 362 W/m² | - |
| 1777996473 | 30.56° C | 78% | 1022.3 hPa | 0 mm | 1.79 m/s, 131° | 840 W/m² | - |
| 1777996169 | 30.56° C | 80% | 1022.1 hPa | 0 mm | 2.68 m/s, 160° | 838 W/m² | - |
| 1777995865 | 30.56° C | 79% | 1022.1 hPa | 0 mm | 2.68 m/s, 104° | 838 W/m² | - |
| 1777995562 | 30.56° C | 80% | 1022 hPa | 0 mm | 2.68 m/s, 70° | 831 W/m² | - |
| 1777995259 | 30° C | 79% | 1021.9 hPa | 0 mm | 2.68 m/s, 26° | 849 W/m² | - |
| 1777994956 | 30.56° C | 79% | 1021.9 hPa | 0 mm | 2.68 m/s, 82° | 784 W/m² | - |
| 1777994653 | 31.11° C | 79% | 1022.2 hPa | 0 mm | 2.68 m/s, 169° | 276 W/m² | - |
| 1777994347 | 31.11° C | 79% | 1022.1 hPa | 0 mm | 2.24 m/s, 79° | 878 W/m² | - |
| 1777994044 | 30.56° C | 79% | 1022 hPa | 0 mm | 3.13 m/s, 96° | 820 W/m² | - |
| 1777993741 | 30.56° C | 79% | 1022.2 hPa | 0 mm | 0.89 m/s, 95° | 829 W/m² | - |
| 1777993439 | 30.56° C | 80% | 1022 hPa | 0 mm | 2.68 m/s, 159° | 842 W/m² | - |
| 1777993138 | 30° C | 82% | 1022.1 hPa | 0 mm | 2.68 m/s, 72° | 842 W/m² | - |
| 1777992836 | 30° C | 83% | 1022 hPa | 0 mm | 1.79 m/s, 77° | 823 W/m² | - |
| 1777992533 | 30° C | 83% | 1021.9 hPa | 0 mm | 1.79 m/s, 87° | 580 W/m² | - |
| 1777992232 | 30° C | 83% | 1022 hPa | 0 mm | 2.24 m/s, 129° | 757 W/m² | - |
* Rain latest hour (hover to see other rain measurements)
** Current wind speed in m/s (hover to see current wind gust speed)